| time (UTC) | temp F | wind direction | speed MPH | gust MPH | rain 1hr in | rain 24hr in | rain mn in | humidity % | barometer mb |
| 20260506014002 | 75 | 317 | 2.0 | 9.0 | 0.00 | 0.00 | 0.00 | 72 | 1006.4 |
| 20260506013507 | 75 | 326 | 3.0 | 8.0 | 0.00 | 0.00 | 0.00 | 71 | 1006.4 |
| 20260506013009 | 75 | 331 | 2.0 | 8.0 | 0.00 | 0.00 | 0.00 | 71 | 1006.4 |
| 20260506012504 | 75 | 360 | 2.0 | 8.0 | 0.00 | 0.00 | 0.00 | 70 | 1006.8 |
| 20260506012004 | 76 | 300 | 2.0 | 11.0 | 0.00 | 0.00 | 0.00 | 70 | 1006.5 |
| 20260506011517 | 76 | 360 | 4.0 | 11.0 | 0.00 | 0.00 | 0.00 | 70 | 1006.1 |
| 20260506011003 | 76 | 360 | 4.0 | 11.0 | 0.00 | 0.00 | 0.00 | 70 | 1005.9 |
| 20260506010506 | 77 | 26 | 4.0 | 11.0 | 0.00 | 0.00 | 0.00 | 70 | 1006.0 |
| 20260506010018 | 78 | 36 | 5.0 | 11.0 | 0.00 | 0.00 | 0.00 | 69 | 1005.8 |
| 20260506005506 | 79 | 320 | 3.0 | 9.0 | 0.00 | 0.00 | 0.00 | 68 | 1005.9 |
| 20260506005009 | 79 | 9 | 3.0 | 7.0 | 0.00 | 0.00 | 0.00 | 67 | 1006.0 |
| 20260506004527 | 80 | 336 | 0.0 | 4.0 | 0.00 | 0.00 | 0.00 | 67 | 1005.9 |
| 20260506004013 | 80 | 338 | 1.0 | 6.0 | 0.00 | 0.00 | 0.00 | 66 | 1005.8 |
| 20260506003510 | 81 | 334 | 1.0 | 6.0 | 0.00 | 0.00 | 0.00 | 65 | 1005.6 |
| 20260506003012 | 82 | 355 | 0.0 | 6.0 | 0.00 | 0.00 | 0.00 | 65 | 1005.6 |
| 20260506002504 | 82 | 324 | 0.0 | 8.0 | 0.00 | 0.00 | 0.00 | 65 | 1005.8 |
| 20260506002004 | 82 | 271 | 0.0 | 8.0 | 0.00 | 0.00 | 0.00 | 66 | 1005.7 |
| 20260506001514 | 83 | 360 | 1.0 | 6.0 | 0.00 | 0.00 | 0.00 | 73 | 1005.5 |
| 20260506001004 | 83 | 231 | 0.0 | 6.0 | 0.00 | 0.00 | 0.00 | 73 | 1005.2 |
| 20260506000504 | 83 | 207 | 1.0 | 9.0 | 0.00 | 0.00 | 0.00 | 73 | 1005.3 |
| 20260506000021 | 83 | 168 | 0.0 | 9.0 | 0.00 | 0.00 | 0.00 | 73 | 1005.1 |
| 20260505235503 | 84 | 262 | 1.0 | 9.0 | 0.00 | 0.00 | 0.00 | 72 | 1004.6 |
| 20260505235007 | 84 | 188 | 1.0 | 10.0 | 0.00 | 0.00 | 0.00 | 72 | 1004.6 |
| 20260505234530 | 84 | 167 | 3.0 | 10.0 | 0.00 | 0.00 | 0.00 | 72 | 1004.3 |
| 20260505234007 | 85 | 155 | 2.0 | 10.0 | 0.00 | 0.00 | 0.00 | 71 | 1004.3 |
| 20260505233508 | 85 | 200 | 3.0 | 10.0 | 0.00 | 0.00 | 0.00 | 71 | 1004.5 |
| 20260505233026 | 85 | 165 | 4.0 | 10.0 | 0.00 | 0.00 | 0.00 | 70 | 1004.5 |
| 20260505232512 | 85 | 360 | 3.0 | 11.0 | 0.00 | 0.00 | 0.00 | 70 | 1004.4 |
| 20260505232010 | 86 | 360 | 4.0 | 11.0 | 0.00 | 0.00 | 0.00 | 69 | 1004.3 |
| 20260505231510 | 86 | 360 | 3.0 | 9.0 | 0.00 | 0.00 | 0.00 | 69 | 1004.4 |
| 20260505231003 | 86 | 170 | 2.0 | 10.0 | 0.00 | 0.00 | 0.00 | 69 | 1004.2 |
| 20260505230503 | 87 | 205 | 2.0 | 11.0 | 0.00 | 0.00 | 0.00 | 68 | 1004.3 |
| 20260505230022 | 87 | 198 | 1.0 | 11.0 | 0.00 | 0.00 | 0.00 | 68 | 1004.2 |
| 20260505225507 | 87 | 186 | 1.0 | 6.0 | 0.00 | 0.00 | 0.00 | 69 | 1004.2 |
| 20260505225004 | 86 | 169 | 2.0 | 7.0 | 0.00 | 0.00 | 0.00 | 68 | 1004.2 |
| 20260505224520 | 87 | 138 | 1.0 | 9.0 | 0.00 | 0.00 | 0.00 | 68 | 1004.2 |
| 20260505224004 | 87 | 198 | 3.0 | 11.0 | 0.00 | 0.00 | 0.00 | 68 | 1004.2 |
| 20260505223507 | 87 | 198 | 4.0 | 11.0 | 0.00 | 0.00 | 0.00 | 67 | 1004.0 |
| 20260505223024 | 88 | 360 | 4.0 | 13.0 | 0.00 | 0.00 | 0.00 | 66 | 1003.8 |
| 20260505222508 | 89 | 139 | 1.0 | 13.0 | 0.00 | 0.00 | 0.00 | 65 | 1003.8 |
| 20260505222008 | 90 | 156 | 2.0 | 9.0 | 0.00 | 0.00 | 0.00 | 64 | 1003.9 |
| 20260505221525 | 90 | 223 | 0.0 | 8.0 | 0.00 | 0.00 | 0.00 | 62 | 1003.9 |
| 20260505221011 | 90 | 233 | 0.0 | 8.0 | 0.00 | 0.00 | 0.00 | 62 | 1003.9 |
| 20260505220512 | 90 | 263 | 1.0 | 8.0 | 0.00 | 0.00 | 0.00 | 62 | 1003.9 |
| 20260505220011 | 90 | 134 | 2.0 | 8.0 | 0.00 | 0.00 | 0.00 | 62 | 1004.0 |
| 20260505215504 | 90 | 250 | 1.0 | 8.0 | 0.00 | 0.00 | 0.00 | 62 | 1003.9 |
| 20260505215004 | 91 | 123 | 2.0 | 8.0 | 0.00 | 0.00 | 0.00 | 61 | 1003.9 |
| 20260505214518 | 91 | 150 | 2.0 | 10.0 | 0.00 | 0.00 | 0.00 | 61 | 1004.0 |
| 20260505214007 | 91 | 360 | 0.0 | 10.0 | 0.00 | 0.00 | 0.00 | 60 | 1004.2 |
| 20260505213504 | 91 | 199 | 2.0 | 8.0 | 0.00 | 0.00 | 0.00 | 59 | 1004.2 |
| 20260505213021 | 92 | 88 | 1.0 | 6.0 | 0.00 | 0.00 | 0.00 | 58 | 1004.2 |
| 20260505212508 | 92 | 196 | 1.0 | 6.0 | 0.00 | 0.00 | 0.00 | 59 | 1004.3 |
| 20260505212010 | 92 | 331 | 0.0 | 13.0 | 0.00 | 0.00 | 0.00 | 59 | 1004.3 |
| 20260505211523 | 92 | 190 | 2.0 | 13.0 | 0.00 | 0.00 | 0.00 | 58 | 1004.3 |
| 20260505211010 | 92 | 155 | 2.0 | 9.0 | 0.00 | 0.00 | 0.00 | 59 | 1004.2 |
| 20260505210508 | 91 | 178 | 1.0 | 10.0 | 0.00 | 0.00 | 0.00 | 59 | 1004.3 |
| 20260505210029 | 91 | 223 | 3.0 | 13.0 | 0.00 | 0.00 | 0.00 | 59 | 1004.4 |
| 20260505205512 | 90 | 215 | 6.0 | 13.0 | 0.00 | 0.00 | 0.00 | 59 | 1004.4 |
| 20260505205011 | 90 | 258 | 0.0 | 8.0 | 0.00 | 0.00 | 0.00 | 60 | 1004.6 |
| 20260505204513 | 90 | 352 | 1.0 | 10.0 | 0.00 | 0.00 | 0.00 | 60 | 1004.8 |
| 20260505204004 | 89 | 188 | 1.0 | 10.0 | 0.00 | 0.00 | 0.00 | 61 | 1004.9 |
| 20260505203508 | 89 | 234 | 1.0 | 9.0 | 0.00 | 0.00 | 0.00 | 62 | 1004.9 |
| 20260505203017 | 89 | 12 | 1.0 | 13.0 | 0.00 | 0.00 | 0.00 | 61 | 1004.8 |
| 20260505202507 | 89 | 256 | 1.0 | 13.0 | 0.00 | 0.00 | 0.00 | 62 | 1005.0 |
| 20260505202008 | 89 | 94 | 1.0 | 9.0 | 0.00 | 0.00 | 0.00 | 62 | 1005.0 |
| 20260505201522 | 89 | 360 | 0.0 | 12.0 | 0.00 | 0.00 | 0.00 | 62 | 1005.0 |
| 20260505201010 | 89 | 102 | 1.0 | 12.0 | 0.00 | 0.00 | 0.00 | 62 | 1005.1 |
| 20260505200516 | 89 | 360 | 0.0 | 12.0 | 0.00 | 0.00 | 0.00 | 62 | 1005.1 |
| 20260505200036 | 89 | 319 | 1.0 | 6.0 | 0.00 | 0.00 | 0.00 | 62 | 1005.1 |
| 20260505195504 | 89 | 93 | 1.0 | 9.0 | 0.00 | 0.00 | 0.00 | 63 | 1005.0 |
| 20260505195002 | 89 | 114 | 1.0 | 9.0 | 0.00 | 0.00 | 0.00 | 64 | 1005.1 |
| 20260505194509 | 88 | 224 | 1.0 | 9.0 | 0.00 | 0.00 | 0.00 | 64 | 1005.1 |
| 20260505194006 | 88 | 232 | 3.0 | 14.0 | 0.00 | 0.00 | 0.00 | 64 | 1005.2 |
| 20260505193504 | 88 | 232 | 4.0 | 14.0 | 0.00 | 0.00 | 0.00 | 64 | 1005.2 |
| 20260505193028 | 88 | 194 | 1.0 | 10.0 | 0.00 | 0.00 | 0.00 | 65 | 1005.2 |
| 20260505192514 | 87 | 241 | 1.0 | 9.0 | 0.00 | 0.00 | 0.00 | 66 | 1005.2 |
| 20260505192006 | 87 | 182 | 1.0 | 9.0 | 0.00 | 0.00 | 0.00 | 66 | 1005.2 |
| 20260505191522 | 86 | 360 | 0.0 | 6.0 | 0.00 | 0.00 | 0.00 | 67 | 1005.2 |
| 20260505191012 | 86 | 240 | 1.0 | 5.0 | 0.00 | 0.00 | 0.00 | 67 | 1005.3 |
| 20260505190506 | 85 | 190 | 1.0 | 8.0 | 0.00 | 0.00 | 0.00 | 67 | 1005.3 |
| 20260505190033 | 85 | 200 | 1.0 | 9.0 | 0.00 | 0.00 | 0.00 | 67 | 1005.4 |
| 20260505185507 | 85 | 109 | 2.0 | 10.0 | 0.00 | 0.00 | 0.00 | 67 | 1005.5 |
| 20260505185008 | 85 | 11 | 3.0 | 10.0 | 0.00 | 0.00 | 0.00 | 66 | 1005.5 |
| 20260505184507 | 85 | 256 | 1.0 | 11.0 | 0.00 | 0.00 | 0.00 | 67 | 1005.5 |
| 20260505184005 | 85 | 360 | 2.0 | 11.0 | 0.00 | 0.00 | 0.00 | 66 | 1005.5 |
| 20260505183504 | 85 | 257 | 1.0 | 12.0 | 0.00 | 0.00 | 0.00 | 66 | 1005.5 |
| 20260505183014 | 85 | 175 | 2.0 | 12.0 | 0.00 | 0.00 | 0.00 | 67 | 1005.4 |
| 20260505182503 | 85 | 226 | 2.0 | 8.0 | 0.00 | 0.00 | 0.00 | 66 | 1005.5 |
| 20260505182007 | 86 | 360 | 2.0 | 8.0 | 0.00 | 0.00 | 0.00 | 65 | 1005.5 |
| 20260505181518 | 86 | 207 | 1.0 | 8.0 | 0.00 | 0.00 | 0.00 | 66 | 1005.6 |
| 20260505181004 | 85 | 185 | 0.0 | 14.0 | 0.00 | 0.00 | 0.00 | 66 | 1005.5 |
| 20260505180505 | 85 | 227 | 3.0 | 14.0 | 0.00 | 0.00 | 0.00 | 65 | 1005.5 |
| 20260505180020 | 85 | 187 | 2.0 | 14.0 | 0.00 | 0.00 | 0.00 | 66 | 1005.4 |
| 20260505175507 | 85 | 360 | 3.0 | 7.0 | 0.00 | 0.00 | 0.00 | 66 | 1005.4 |
| 20260505175006 | 85 | 239 | 1.0 | 8.0 | 0.00 | 0.00 | 0.00 | 66 | 1005.5 |
| 20260505174535 | 85 | 77 | 2.0 | 12.0 | 0.00 | 0.00 | 0.00 | 67 | 1005.6 |
| 20260505174009 | 85 | 360 | 2.0 | 12.0 | 0.00 | 0.00 | 0.00 | 67 | 1005.6 |
| 20260505173508 | 85 | 360 | 2.0 | 17.0 | 0.00 | 0.00 | 0.00 | 68 | 1005.5 |
| 20260505173010 | 84 | 181 | 3.0 | 17.0 | 0.00 | 0.00 | 0.00 | 67 | 1005.6 |
| 20260505172504 | 84 | 286 | 3.0 | 10.0 | 0.00 | 0.00 | 0.00 | 68 | 1005.5 |
| 20260505172012 | 84 | 208 | 3.0 | 11.0 | 0.00 | 0.00 | 0.00 | 68 | 1005.6 |
| 20260505171518 | 84 | 261 | 3.0 | 12.0 | 0.00 | 0.00 | 0.00 | 68 | 1005.7 |
| 20260505171004 | 84 | 360 | 2.0 | 12.0 | 0.00 | 0.00 | 0.00 | 68 | 1005.7 |
| 20260505170505 | 83 | 119 | 1.0 | 11.0 | 0.00 | 0.00 | 0.00 | 70 | 1005.8 |
| 20260505170020 | 83 | 182 | 3.0 | 11.0 | 0.00 | 0.00 | 0.00 | 70 | 1005.7 |
| 20260505165504 | 82 | 257 | 2.0 | 10.0 | 0.00 | 0.00 | 0.00 | 71 | 1005.6 |
| 20260505165011 | 82 | 155 | 2.0 | 10.0 | 0.00 | 0.00 | 0.00 | 70 | 1005.6 |
| 20260505164522 | 82 | 217 | 2.0 | 9.0 | 0.00 | 0.00 | 0.00 | 70 | 1005.6 |
| 20260505164007 | 82 | 263 | 2.0 | 12.0 | 0.00 | 0.00 | 0.00 | 70 | 1005.7 |
| 20260505163509 | 82 | 207 | 4.0 | 12.0 | 0.00 | 0.00 | 0.00 | 71 | 1005.6 |
| 20260505163025 | 82 | 249 | 2.0 | 12.0 | 0.00 | 0.00 | 0.00 | 71 | 1005.6 |
| 20260505162507 | 82 | 168 | 3.0 | 12.0 | 0.00 | 0.00 | 0.00 | 71 | 1005.5 |
| 20260505162010 | 81 | 194 | 3.0 | 11.0 | 0.00 | 0.00 | 0.00 | 72 | 1005.4 |
| 20260505161510 | 81 | 178 | 1.0 | 10.0 | 0.00 | 0.00 | 0.00 | 73 | 1005.4 |
| 20260505161005 | 81 | 211 | 2.0 | 10.0 | 0.00 | 0.00 | 0.00 | 73 | 1005.3 |
| 20260505160507 | 80 | 166 | 0.0 | 8.0 | 0.00 | 0.00 | 0.00 | 74 | 1005.3 |
| 20260505153024 | 78 | 236 | 4.0 | 13.0 | 0.00 | 0.00 | 0.00 | 77 | 1005.6 |
| 20260505152511 | 77 | 211 | 3.0 | 13.0 | 0.00 | 0.00 | 0.00 | 78 | 1005.6 |
| 20260505152017 | 77 | 276 | 2.0 | 10.0 | 0.00 | 0.00 | 0.00 | 78 | 1005.6 |
| 20260505151526 | 77 | 153 | 2.0 | 10.0 | 0.00 | 0.00 | 0.00 | 79 | 1005.7 |
| 20260505151012 | 76 | 259 | 3.0 | 10.0 | 0.00 | 0.00 | 0.00 | 79 | 1005.6 |
| 20260505150511 | 76 | 360 | 3.0 | 10.0 | 0.00 | 0.00 | 0.00 | 79 | 1005.6 |
| 20260505140507 | 73 | 209 | 2.0 | 12.0 | 0.00 | 0.00 | 0.00 | 83 | 1005.6 |
| 20260505125008 | 72 | 341 | 3.0 | 10.0 | 0.00 | 0.00 | 0.00 | 85 | 1005.3 |
| 20260505124525 | 72 | 225 | 3.0 | 9.0 | 0.00 | 0.00 | 0.00 | 85 | 1005.3 |
| 20260505124011 | 71 | 202 | 1.0 | 9.0 | 0.00 | 0.00 | 0.00 | 85 | 1005.0 |
| 20260505123507 | 71 | 151 | 2.0 | 14.0 | 0.00 | 0.00 | 0.00 | 86 | 1004.9 |
| 20260505123017 | 71 | 192 | 2.0 | 14.0 | 0.00 | 0.00 | 0.00 | 86 | 1004.9 |
| 20260505122504 | 71 | 148 | 1.0 | 18.0 | 0.00 | 0.00 | 0.00 | 86 | 1004.9 |
| 20260505122007 | 71 | 196 | 4.0 | 18.0 | 0.00 | 0.00 | 0.00 | 86 | 1004.9 |
| 20260505121519 | 71 | 222 | 1.0 | 9.0 | 0.00 | 0.00 | 0.00 | 86 | 1004.9 |
| 20260505121008 | 71 | 262 | 1.0 | 9.0 | 0.00 | 0.00 | 0.00 | 86 | 1004.9 |
| 20260505120513 | 71 | 191 | 2.0 | 10.0 | 0.00 | 0.00 | 0.00 | 86 | 1004.7 |
| 20260505120023 | 71 | 172 | 1.0 | 10.0 | 0.00 | 0.00 | 0.00 | 86 | 1004.8 |
| 20260505115508 | 71 | 186 | 1.0 | 8.0 | 0.00 | 0.00 | 0.00 | 86 | 1004.8 |
| 20260505115014 | 71 | 148 | 2.0 | 10.0 | 0.00 | 0.00 | 0.00 | 86 | 1004.8 |
| 20260505114528 | 71 | 160 | 2.0 | 11.0 | 0.00 | 0.00 | 0.00 | 86 | 1004.8 |
| 20260505114013 | 71 | 240 | 0.0 | 11.0 | 0.00 | 0.00 | 0.00 | 85 | 1004.5 |
| 20260505113507 | 71 | 220 | 1.0 | 11.0 | 0.00 | 0.00 | 0.00 | 85 | 1004.5 |
| 20260505113027 | 71 | 191 | 4.0 | 11.0 | 0.00 | 0.00 | 0.00 | 85 | 1004.4 |
| 20260505112512 | 71 | 204 | 2.0 | 14.0 | 0.00 | 0.00 | 0.00 | 85 | 1004.4 |
| 20260505112007 | 71 | 26 | 1.0 | 14.0 | 0.00 | 0.00 | 0.00 | 85 | 1004.5 |
| 20260505111522 | 71 | 360 | 2.0 | 11.0 | 0.00 | 0.00 | 0.00 | 85 | 1004.4 |
| 20260505111007 | 71 | 232 | 2.0 | 12.0 | 0.00 | 0.00 | 0.00 | 85 | 1004.3 |
| 20260505110507 | 71 | 231 | 4.0 | 12.0 | 0.00 | 0.00 | 0.00 | 85 | 1004.3 |
| 20260505102010 | 71 | 236 | 4.0 | 10.0 | 0.00 | 0.00 | 0.00 | 85 | 1004.7 |
| 20260505101527 | 71 | 167 | 2.0 | 11.0 | 0.00 | 0.00 | 0.00 | 85 | 1004.7 |
| 20260505101010 | 71 | 211 | 3.0 | 11.0 | 0.00 | 0.00 | 0.00 | 85 | 1004.7 |
| 20260505100504 | 71 | 209 | 4.0 | 11.0 | 0.00 | 0.00 | 0.00 | 85 | 1004.7 |
| 20260505100026 | 71 | 151 | 3.0 | 9.0 | 0.00 | 0.00 | 0.00 | 85 | 1004.6 |
| 20260505095507 | 71 | 231 | 2.0 | 10.0 | 0.00 | 0.00 | 0.00 | 85 | 1004.8 |
| 20260505095007 | 71 | 186 | 3.0 | 10.0 | 0.00 | 0.00 | 0.00 | 85 | 1004.9 |
| 20260505094503 | 71 | 238 | 2.0 | 9.0 | 0.00 | 0.00 | 0.00 | 85 | 1005.0 |
| 20260505094002 | 71 | 195 | 2.0 | 10.0 | 0.00 | 0.00 | 0.00 | 85 | 1005.0 |
| 20260505093502 | 71 | 229 | 4.0 | 10.0 | 0.00 | 0.00 | 0.00 | 85 | 1005.0 |
| 20260505093008 | 71 | 9 | 3.0 | 12.0 | 0.00 | 0.00 | 0.00 | 85 | 1005.0 |
| 20260505092502 | 71 | 202 | 2.0 | 12.0 | 0.00 | 0.00 | 0.00 | 85 | 1005.1 |
| 20260505092002 | 71 | 360 | 2.0 | 10.0 | 0.00 | 0.00 | 0.00 | 85 | 1005.1 |
| 20260505091510 | 71 | 175 | 2.0 | 10.0 | 0.00 | 0.00 | 0.00 | 85 | 1005.1 |
| 20260505091004 | 71 | 360 | 1.0 | 10.0 | 0.00 | 0.00 | 0.00 | 85 | 1005.2 |
| 20260505090508 | 71 | 171 | 1.0 | 14.0 | 0.00 | 0.00 | 0.00 | 85 | 1005.0 |
| 20260505090016 | 71 | 207 | 4.0 | 14.0 | 0.00 | 0.00 | 0.00 | 85 | 1005.1 |
| 20260505085507 | 71 | 196 | 3.0 | 14.0 | 0.00 | 0.00 | 0.00 | 85 | 1005.1 |
| 20260505085010 | 71 | 231 | 4.0 | 11.0 | 0.00 | 0.00 | 0.00 | 85 | 1005.0 |
| 20260505084522 | 71 | 360 | 0.0 | 11.0 | 0.00 | 0.00 | 0.00 | 85 | 1005.0 |
| 20260505084010 | 71 | 228 | 3.0 | 14.0 | 0.00 | 0.00 | 0.00 | 85 | 1005.0 |
| 20260505083508 | 71 | 194 | 3.0 | 14.0 | 0.00 | 0.00 | 0.00 | 85 | 1005.1 |
| 20260505083007 | 71 | 142 | 3.0 | 13.0 | 0.00 | 0.00 | 0.00 | 85 | 1005.1 |
| 20260505082504 | 71 | 173 | 2.0 | 11.0 | 0.00 | 0.00 | 0.00 | 85 | 1005.1 |
| 20260505082002 | 71 | 212 | 3.0 | 13.0 | 0.00 | 0.00 | 0.00 | 85 | 1005.1 |
| 20260505081509 | 71 | 213 | 3.0 | 13.0 | 0.00 | 0.00 | 0.00 | 85 | 1005.1 |
| 20260505081005 | 71 | 9 | 3.0 | 13.0 | 0.00 | 0.00 | 0.00 | 84 | 1005.1 |
| 20260505080506 | 71 | 190 | 4.0 | 10.0 | 0.00 | 0.00 | 0.00 | 84 | 1005.1 |
| 20260505080014 | 71 | 200 | 3.0 | 10.0 | 0.00 | 0.00 | 0.00 | 84 | 1005.2 |
| 20260505075506 | 71 | 248 | 1.0 | 14.0 | 0.00 | 0.00 | 0.00 | 84 | 1005.3 |
| 20260505075009 | 71 | 182 | 2.0 | 14.0 | 0.00 | 0.00 | 0.00 | 84 | 1005.4 |
| 20260505074518 | 71 | 153 | 2.0 | 10.0 | 0.00 | 0.00 | 0.00 | 84 | 1005.5 |
| 20260505074006 | 71 | 190 | 1.0 | 10.0 | 0.00 | 0.00 | 0.00 | 84 | 1005.6 |
| 20260505073507 | 71 | 188 | 2.0 | 8.0 | 0.00 | 0.00 | 0.00 | 84 | 1005.6 |
| 20260505073029 | 71 | 170 | 2.0 | 10.0 | 0.00 | 0.00 | 0.00 | 83 | 1005.8 |
| 20260505072508 | 71 | 203 | 1.0 | 10.0 | 0.00 | 0.00 | 0.00 | 83 | 1005.9 |
| 20260505072005 | 71 | 150 | 2.0 | 9.0 | 0.00 | 0.00 | 0.00 | 83 | 1005.9 |
| 20260505071513 | 72 | 176 | 3.0 | 10.0 | 0.00 | 0.00 | 0.00 | 83 | 1005.9 |
| 20260505071004 | 71 | 159 | 1.0 | 11.0 | 0.00 | 0.00 | 0.00 | 83 | 1006.0 |
| 20260505070503 | 72 | 181 | 3.0 | 11.0 | 0.00 | 0.00 | 0.00 | 83 | 1006.1 |
| 20260505070012 | 72 | 196 | 4.0 | 11.0 | 0.00 | 0.00 | 0.00 | 83 | 1006.2 |
| 20260505065503 | 72 | 198 | 2.0 | 9.0 | 0.00 | 0.00 | 0.00 | 83 | 1006.3 |
| 20260505065002 | 71 | 174 | 2.0 | 9.0 | 0.00 | 0.00 | 0.00 | 82 | 1006.4 |
| 20260505064521 | 72 | 182 | 1.0 | 8.0 | 0.00 | 0.00 | 0.00 | 82 | 1006.5 |
| 20260505064003 | 71 | 167 | 2.0 | 10.0 | 0.00 | 0.00 | 0.00 | 82 | 1006.4 |
| 20260505063504 | 71 | 360 | 2.0 | 10.0 | 0.00 | 0.00 | 0.00 | 82 | 1006.4 |
| 20260505063020 | 71 | 210 | 3.0 | 12.0 | 0.00 | 0.00 | 0.00 | 82 | 1006.3 |
| 20260505062509 | 71 | 191 | 2.0 | 12.0 | 0.00 | 0.00 | 0.00 | 82 | 1006.4 |
| 20260505062010 | 71 | 202 | 3.0 | 11.0 | 0.00 | 0.00 | 0.00 | 82 | 1006.5 |
| 20260505061523 | 71 | 199 | 2.0 | 11.0 | 0.00 | 0.00 | 0.00 | 81 | 1006.5 |
| 20260505061017 | 72 | 176 | 4.0 | 10.0 | 0.00 | 0.00 | 0.00 | 81 | 1006.5 |
| 20260505060510 | 72 | 176 | 2.0 | 11.0 | 0.00 | 0.00 | 0.00 | 81 | 1006.5 |
| 20260505060008 | 72 | 166 | 3.0 | 11.0 | 0.00 | 0.00 | 0.00 | 81 | 1006.6 |
| 20260505055504 | 72 | 178 | 3.0 | 10.0 | 0.00 | 0.00 | 0.00 | 81 | 1006.6 |
| 20260505055004 | 72 | 360 | 4.0 | 10.0 | 0.00 | 0.00 | 0.00 | 81 | 1006.7 |
| 20260505054514 | 72 | 360 | 4.0 | 11.0 | 0.00 | 0.00 | 0.00 | 80 | 1006.6 |
| 20260505054008 | 72 | 225 | 3.0 | 11.0 | 0.00 | 0.00 | 0.00 | 80 | 1006.7 |
| 20260505053506 | 72 | 171 | 3.0 | 11.0 | 0.00 | 0.00 | 0.00 | 80 | 1006.8 |
| 20260505053023 | 72 | 171 | 2.0 | 11.0 | 0.00 | 0.00 | 0.00 | 80 | 1006.8 |
| 20260505052511 | 72 | 140 | 3.0 | 11.0 | 0.00 | 0.00 | 0.00 | 79 | 1006.8 |
| 20260505052006 | 72 | 198 | 2.0 | 11.0 | 0.00 | 0.00 | 0.00 | 79 | 1006.8 |
| 20260505051533 | 72 | 360 | 3.0 | 11.0 | 0.00 | 0.00 | 0.00 | 79 | 1006.8 |
| 20260505051011 | 72 | 144 | 4.0 | 11.0 | 0.00 | 0.00 | 0.00 | 78 | 1006.9 |
| 20260505050509 | 72 | 360 | 3.0 | 10.0 | 0.00 | 0.00 | 0.00 | 78 | 1006.9 |
| 20260505041521 | 73 | 208 | 3.0 | 10.0 | 0.00 | 0.00 | 0.00 | 76 | 1007.1 |
| 20260505041006 | 73 | 195 | 3.0 | 13.0 | 0.00 | 0.00 | 0.00 | 76 | 1007.0 |
| 20260505040506 | 73 | 169 | 3.0 | 14.0 | 0.00 | 0.00 | 0.00 | 75 | 1007.2 |
| 20260505040036 | 73 | 202 | 4.0 | 14.0 | 0.00 | 0.00 | 0.00 | 75 | 1007.1 |
| 20260505035507 | 73 | 182 | 3.0 | 10.0 | 0.00 | 0.00 | 0.00 | 75 | 1007.0 |
| 20260505035007 | 73 | 155 | 5.0 | 10.0 | 0.00 | 0.00 | 0.00 | 75 | 1006.9 |
| 20260505034524 | 74 | 215 | 2.0 | 10.0 | 0.00 | 0.00 | 0.00 | 74 | 1007.0 |
| 20260505034012 | 74 | 169 | 3.0 | 10.0 | 0.00 | 0.00 | 0.00 | 74 | 1006.9 |
| 20260505033507 | 74 | 197 | 3.0 | 8.0 | 0.00 | 0.00 | 0.00 | 74 | 1007.0 |
| 20260505033031 | 74 | 158 | 1.0 | 9.0 | 0.00 | 0.00 | 0.00 | 74 | 1007.1 |
| 20260505032504 | 74 | 360 | 2.0 | 14.0 | 0.00 | 0.00 | 0.00 | 74 | 1007.1 |
| 20260505032006 | 74 | 226 | 3.0 | 14.0 | 0.00 | 0.00 | 0.00 | 73 | 1007.1 |
| 20260505031514 | 74 | 149 | 4.0 | 11.0 | 0.00 | 0.00 | 0.00 | 73 | 1007.1 |
| 20260505031005 | 74 | 360 | 1.0 | 9.0 | 0.00 | 0.00 | 0.00 | 73 | 1007.1 |
| 20260505030506 | 74 | 360 | 3.0 | 11.0 | 0.00 | 0.00 | 0.00 | 73 | 1007.1 |
| 20260505030026 | 74 | 217 | 3.0 | 12.0 | 0.00 | 0.00 | 0.00 | 73 | 1007.1 |
| 20260505025508 | 74 | 193 | 4.0 | 12.0 | 0.00 | 0.00 | 0.00 | 73 | 1007.1 |
| 20260505025011 | 74 | 196 | 1.0 | 10.0 | 0.00 | 0.00 | 0.00 | 73 | 1007.0 |
| 20260505024522 | 74 | 191 | 2.0 | 8.0 | 0.00 | 0.00 | 0.00 | 72 | 1007.1 |
| 20260505024007 | 74 | 196 | 1.0 | 9.0 | 0.00 | 0.00 | 0.00 | 72 | 1007.0 |
| 20260505023508 | 74 | 199 | 3.0 | 9.0 | 0.00 | 0.00 | 0.00 | 72 | 1006.9 |
| 20260505023024 | 75 | 138 | 2.0 | 7.0 | 0.00 | 0.00 | 0.00 | 72 | 1006.8 |
| 20260505022509 | 75 | 171 | 2.0 | 7.0 | 0.00 | 0.00 | 0.00 | 72 | 1007.0 |
| 20260505022011 | 75 | 360 | 1.0 | 6.0 | 0.00 | 0.00 | 0.00 | 72 | 1007.0 |
| 20260505021512 | 75 | 204 | 3.0 | 8.0 | 0.00 | 0.00 | 0.00 | 71 | 1006.9 |
| 20260505021005 | 75 | 158 | 2.0 | 12.0 | 0.00 | 0.00 | 0.00 | 71 | 1007.0 |
| 20260505020505 | 75 | 210 | 3.0 | 12.0 | 0.00 | 0.00 | 0.00 | 71 | 1006.9 |
| 20260505020019 | 75 | 360 | 4.0 | 12.0 | 0.00 | 0.00 | 0.00 | 71 | 1006.9 |
| 20260505015506 | 75 | 195 | 2.0 | 9.0 | 0.00 | 0.00 | 0.00 | 71 | 1007.0 |
| 20260505015008 | 75 | 217 | 2.0 | 9.0 | 0.00 | 0.00 | 0.00 | 70 | 1006.9 |
| 20260505014524 | 75 | 210 | 2.0 | 8.0 | 0.00 | 0.00 | 0.00 | 70 | 1006.9 |